Weather History for Prague, Czech Republic

Change the Weather History Date:

Friday, January 18, 2013

  Actual Average Record
Temperature  
Mean Temperature 21 °F -  
Max Temperature 23 °F 35 °F 57 °F (2007)
Min Temperature 19 °F 23 °F 15 °F (1997)
Degree Days  
Heating Degree Days 44    
Moisture  
Dew Point 18 °F    
Average Humidity 88    
Maximum Humidity 93    
Minimum Humidity 75    
Precipitation  
Precipitation 0.00 in 0.03 in - ()
Sea Level Pressure  
Sea Level Pressure 29.79 in    
Wind  
Wind Speed 9 mph ()    
Max Wind Speed 16 mph    
Max Gust Speed -    
Visibility 4.8 miles    
Events Snow    
Averages and records for this station are not official NWS values.
T = Trace of Precipitation, MM = Missing Value Source: Averaged Metar Reports

Daily Weather History Graph

Daily Weather History Graph

Search for Another Location

Airport:

Trip Planner

Search our weather history database for the weather conditions in past years. The results will help you decide how hot, cold, wet, or windy it might be!

Date:

Astronomy

Jan. 18, 2013 Rise Set
Actual Time 7:53 AM CET 4:33 PM CET
Civil Twilight 7:16 AM CET 5:10 PM CET
Nautical Twilight 6:36 AM CET 5:50 PM CET
Astronomical Twilight 5:57 AM CET 6:29 PM CET
Moon 10:34 AM CET (1/18) No Moon Set
Length of Visible Light 9h 53m
Length of Day
8h 40m
Waxing Crescent, 45% of the Moon is Illuminated
Jan 18
Waxing Crescent
Jan 19
First Quarter
Jan 27
Full
Feb 3
Last Quarter
Feb 10
New

Hourly Weather History & Observations

Time (CET) Temp. Windchill Dew Point Humidity Pressure Visibility Wind Dir Wind Speed Gust Speed Precip Events Conditions
12:00 AM 23.0 °F 11.1 °F 21.2 °F 93% 29.86 in 1.4 mi North 12.7 mph - N/A Snow Snow
12:20 AM 23.0 °F 13.1 °F 21.2 °F 93% 29.86 in 1.0 mi North 9.2 mph - N/A Snow Snow
12:30 AM 23.0 °F 11.7 °F 21.2 °F 93% 29.86 in 0.9 mi North 11.5 mph - N/A Snow Snow
1:00 AM 23 °F - 22 °F 92% 29.94 in 2 mi North 11.2 mph - - Snow Light Snow
1:00 AM 23.0 °F 11.7 °F 21.2 °F 93% 29.86 in 1.7 mi North 11.5 mph - N/A Snow Light Snow
1:30 AM 23.0 °F 11.7 °F 21.2 °F 93% 29.86 in 1.6 mi North 11.5 mph - N/A Snow Light Snow
2:00 AM 23.0 °F 11.1 °F 21.2 °F 93% 29.83 in 1.4 mi North 12.7 mph - N/A Snow Light Snow
2:30 AM 23.0 °F 9.6 °F 21.2 °F 93% 29.83 in 1.7 mi North 16.1 mph - N/A Snow Light Snow
3:00 AM 23.0 °F 10.6 °F 21.2 °F 93% 29.83 in - North 13.8 mph - N/A Snow Light Snow
3:09 AM 23.0 °F 12.4 °F 21.2 °F 93% 29.83 in 3.1 mi North 10.4 mph - N/A Snow Light Snow
3:30 AM 23.0 °F 11.1 °F 21.2 °F 93% 29.83 in 3.7 mi North 12.7 mph - N/A Snow Light Snow
4:00 AM 23.0 °F 11.7 °F 19.4 °F 86% 29.83 in 5.0 mi North 11.5 mph - N/A Snow Light Snow
4:30 AM 23.0 °F 13.9 °F 19.4 °F 86% 29.83 in 3.7 mi North 8.1 mph - N/A Snow Light Snow
5:00 AM 21.2 °F 10.9 °F 19.4 °F 93% 29.83 in 3.7 mi North 9.2 mph - N/A Snow Light Snow
5:30 AM 21.2 °F 9.5 °F 17.6 °F 86% 29.83 in 5.0 mi North 11.5 mph - N/A Snow Light Snow
6:00 AM 21.2 °F 9.5 °F 17.6 °F 86% 29.83 in 5.0 mi North 11.5 mph - N/A Snow Light Snow
6:30 AM 21.2 °F 10.1 °F 17.6 °F 86% 29.83 in 3.7 mi North 10.4 mph - N/A Snow Light Snow
7:00 AM 20 °F - 18 °F 88% 29.92 in 4 mi North 11.2 mph - - Snow Light Snow
7:00 AM 19.4 °F 7.9 °F 17.6 °F 93% 29.83 in 3.7 mi North 10.4 mph - N/A Snow Light Snow
7:30 AM 19.4 °F 7.9 °F 17.6 °F 93% 29.80 in 5.0 mi North 10.4 mph - N/A Snow Light Snow
8:00 AM 19.4 °F 8.6 °F 15.8 °F 86% 29.83 in 6.2 mi North 9.2 mph - N/A Snow Light Snow
8:30 AM 19.4 °F 9.5 °F 15.8 °F 86% 29.83 in 6.2 mi North 8.1 mph - N/A Snow Light Snow
9:00 AM 19.4 °F 11.5 °F 15.8 °F 86% 29.83 in 6.2 mi North 5.8 mph - N/A Snow Light Snow
9:30 AM 19.4 °F 9.5 °F 15.8 °F 86% 29.83 in 6.2 mi North 8.1 mph - N/A   Overcast
10:00 AM 19.4 °F 10.4 °F 15.8 °F 86% 29.83 in 5.6 mi North 6.9 mph - N/A Snow Light Snow
10:30 AM 19.4 °F 8.6 °F 15.8 °F 86% 29.83 in 5.0 mi North 9.2 mph - N/A Snow Light Snow
11:00 AM 19.4 °F 8.6 °F 15.8 °F 86% 29.80 in 5.0 mi North 9.2 mph - N/A Snow Light Snow
11:30 AM 19.4 °F 9.5 °F 15.8 °F 86% 29.80 in 5.0 mi North 8.1 mph - N/A   Overcast
12:00 PM 19.4 °F 10.4 °F 15.8 °F 86% 29.80 in 5.6 mi North 6.9 mph - N/A   Overcast
12:30 PM 21.2 °F 13.6 °F 15.8 °F 80% 29.80 in 5.6 mi North 5.8 mph - N/A   Overcast
1:00 PM 21 °F - 16 °F 75% 29.90 in 6 mi North 6.7 mph - -   Mist
1:00 PM 21.2 °F 12.6 °F 17.6 °F 86% 29.80 in 5.6 mi North 6.9 mph - N/A   Overcast
1:30 PM 21.2 °F 11.7 °F 15.8 °F 80% 29.77 in 5.6 mi North 8.1 mph - N/A   Overcast
2:00 PM 21.2 °F 10.1 °F 15.8 °F 80% 29.77 in 6.2 mi North 10.4 mph - N/A   Mostly Cloudy
2:30 PM 21.2 °F 10.9 °F 15.8 °F 80% 29.77 in 6.2 mi North 9.2 mph - N/A   Mostly Cloudy
3:00 PM 21.2 °F 11.7 °F 15.8 °F 80% 29.74 in 6.2 mi North 8.1 mph - N/A   Mostly Cloudy
3:30 PM 21.2 °F 11.7 °F 17.6 °F 86% 29.74 in 6.2 mi North 8.1 mph - N/A   Overcast
4:00 PM 21.2 °F 11.7 °F 15.8 °F 80% 29.74 in 6.2 mi North 8.1 mph - N/A   Overcast
4:30 PM 21.2 °F 12.6 °F 15.8 °F 80% 29.74 in 6.2 mi North 6.9 mph - N/A   Overcast
5:00 PM 21.2 °F 12.6 °F 15.8 °F 80% 29.74 in 6.2 mi NNW 6.9 mph - N/A   Overcast
5:30 PM 21.2 °F 12.6 °F 15.8 °F 80% 29.74 in 6.2 mi North 6.9 mph - N/A   Overcast
6:00 PM 21.2 °F 11.7 °F 15.8 °F 80% 29.74 in 6.2 mi North 8.1 mph - N/A   Overcast
6:30 PM 21.2 °F 11.7 °F 17.6 °F 86% 29.74 in 6.2 mi NNW 8.1 mph - N/A   Overcast
7:00 PM 20 °F - 17 °F 80% 29.83 in 7 mi North 6.7 mph - -   Partly Cloudy
7:00 PM 21.2 °F 13.6 °F 17.6 °F 86% 29.74 in 6.2 mi North 5.8 mph - N/A   Overcast
7:15 PM 19.4 °F 12.8 °F 17.6 °F 93% 29.71 in 6.2 mi NNW 4.6 mph - N/A   Overcast
7:30 PM 19.4 °F 9.5 °F 17.6 °F 93% 29.71 in 6.2 mi North 8.1 mph - N/A   Overcast
8:00 PM 19.4 °F 11.5 °F 17.6 °F 93% 29.71 in 6.2 mi North 5.8 mph - N/A   Overcast
8:30 PM 19.4 °F 11.5 °F 17.6 °F 93% 29.71 in 6.2 mi North 5.8 mph - N/A   Overcast
8:49 PM 19.4 °F 11.5 °F 17.6 °F 93% 29.71 in 2.8 mi NNE 5.8 mph - N/A Snow Light Snow
9:00 PM 19.4 °F 11.5 °F 17.6 °F 93% 29.71 in 3.7 mi NNE 5.8 mph - N/A Snow Light Snow
9:15 PM 19.4 °F 12.8 °F 17.6 °F 93% 29.68 in 5.0 mi NNE 4.6 mph - N/A   Overcast
9:30 PM 19.4 °F 12.8 °F 17.6 °F 93% 29.68 in 5.0 mi NNE 4.6 mph - N/A   Mostly Cloudy
10:00 PM 19.4 °F 11.5 °F 17.6 °F 93% 29.68 in 5.6 mi NNE 5.8 mph - N/A   Mostly Cloudy
10:30 PM 19.4 °F 12.8 °F 17.6 °F 93% 29.68 in 5.0 mi North 4.6 mph - N/A Snow Light Snow
11:00 PM 19.4 °F 14.3 °F 17.6 °F 93% 29.68 in 4.3 mi North 3.5 mph - N/A   Overcast
11:30 PM 19.4 °F 14.3 °F 17.6 °F 93% 29.65 in 4.3 mi North 3.5 mph - N/A Snow Light Snow